Content
SEND FEEDBACK

Daily
Averages
Monthly
Summary
United States of America

WALLOPS ISLAND, VIRGINIA


Home > North America > United States > Virginia
Elevation: 13 feet     Latitude: 37 51N     Longitude: 075 28W

WEATHER
 
SELECT A DAY
Number of Records: 19,532;   Date Range: 9/1/12 - 7/7/14
 
SHARE

PRINT THIS DATA

[ ← Previous Day ]
WEATHER ALMANAC - FEBRUARY 13, 2013
[ Next Day → ]
[ °C ]   °F
Weather ElementAverageHighLow
Temperature44.7 °F46.9 °F (2:54 am)39.9 °F (10:54 pm)
Dewpoint38.1 °F41 °F (3:54 pm)33.8 °F (8:54 am)
Humidity77.5 %83 % (4:54 pm)63 % (10:54 am)
Barometer29.68 in29.92 in (1:54 am)29.58 in (5:52 pm)
Wind Speed8.9 mph16.1 mph (7:54 am)
Weather ElementAverage
Visibility5.9 mi
Wind DirectionSSW (204.1 °)

Weather ElementTotal
Precipitation0.78 in
Heating Degree Days21.6 (Base 65)
Averaged from 49 records on February 13, 2013
WEATHER CONDITIONS BREAKOUT
WIND DIRECTION BREAKOUT
WEATHER BY HOUR - FEBRUARY 13, 2013
[ °C ]   °F
Local TimeTemperatureDewpointHumidityBarometerVisibilityWind DirectionWind SpeedGust SpeedPrecipitationEventsConditions
1:54 AM45.0 °F35.1 °F68 %29.92 in10.0 miSW (230°)4.6 mphClear
2:54 AM46.9 °F36.0 °F66 %29.89 in10.0 miSW (220°)6.9 mphMostly Cloudy
3:54 AM46.9 °F36.0 °F66 %29.87 in10.0 miSW (220°)8.1 mphOvercast
4:54 AM45.0 °F37.0 °F74 %29.88 in10.0 miEast (80°)6.9 mphOvercast
5:54 AM44.1 °F37.0 °F76 %29.86 in10.0 miENE (70°)13.8 mphOvercast
6:54 AM43.0 °F35.1 °F74 %29.86 in10.0 miEast (80°)13.8 mphMostly Cloudy
7:54 AM44.1 °F34.0 °F68 %29.86 in10.0 miENE (70°)16.1 mphOvercast
8:54 AM44.6 °F33.8 °F66 %29.86 in10.0 miEast (80°)13.8 mphMostly Cloudy
9:54 AM46.0 °F35.1 °F66 %29.86 in10.0 miEast (80°)12.7 mphOvercast
10:54 AM46.9 °F35.1 °F63 %29.83 in10.0 miEast (80°)12.7 mphOvercast
11:54 AM46.0 °F36.0 °F68 %29.81 in10.0 miENE (60°)10.4 mph0.00 inOvercast
12:54 PM45.0 °F37.0 °F74 %29.75 in8.0 miENE (70°)12.7 mph0.03 inRainLight Rain
1:54 PM46.0 °F37.9 °F73 %29.68 in10.0 miENE (70°)11.5 mph0.01 inOvercast
2:54 PM46.0 °F39.0 °F76 %29.66 in6.0 miENE (60°)11.5 mph0.00 inHaze
3:29 PM46.0 °F39.9 °F79 %29.65 in5.0 miEast (90°)8.1 mph0.00 inHaze
3:38 PM46.0 °F39.9 °F79 %29.64 in5.0 miEast (90°)8.1 mph0.00 inHaze
3:46 PM46.0 °F39.9 °F79 %29.62 in4.0 miEast (80°)8.1 mph0.00 inHaze
3:54 PM46.9 °F41.0 °F80 %29.62 in3.0 miEast (90°)8.1 mph0.00 inHaze
4:05 PM46.9 °F41.0 °F80 %29.62 in3.0 miEast (100°)9.2 mphHaze
4:14 PM46.9 °F41.0 °F80 %29.62 in2.5 miESE (110°)8.1 mph0.00 inRainLight Rain
4:23 PM46.9 °F41.0 °F80 %29.63 in3.0 miEast (80°)4.6 mph0.00 inHaze
4:29 PM46.9 °F41.0 °F80 %29.63 in2.5 miEast (100°)3.5 mph0.00 inRainLight Rain
4:39 PM46.9 °F41.0 °F80 %29.62 in1.8 miEast (80°)5.8 mph0.00 inRainLight Rain
4:49 PM46.4 °F41.0 °F81 %29.61 in1.0 miENE (70°)4.6 mph0.01 inRainLight Rain
4:54 PM46.0 °F41.0 °F83 %29.60 in1.0 miENE (60°)4.6 mph0.02 inRainLight Rain
4:59 PM46.9 °F41.0 °F80 %29.60 in1.2 miNE (50°)5.8 mph0.00 inRainLight Rain
5:22 PM46.0 °F41.0 °F83 %29.60 in1.0 miCalm0.05 inRainHeavy Rain
5:32 PM46.0 °F41.0 °F83 %29.61 in1.8 miNNW (330°)5.8 mph0.08 inRainLight Rain
5:45 PM46.0 °F41.0 °F83 %29.60 in2.0 miNW (320°)3.5 mph0.09 inRainLight Rain
5:52 PM46.4 °F41.0 °F81 %29.58 in2.5 miNorth (350°)4.6 mph0.09 inRainLight Rain
5:54 PM46.0 °F41.0 °F83 %29.58 in2.5 miNorth (350°)3.5 mph0.10 inRainLight Rain
6:11 PM46.0 °F39.9 °F79 %29.59 in3.0 miNNW (340°)5.8 mph0.01 inRainLight Rain
6:19 PM46.0 °F41.0 °F83 %29.60 in2.5 miNNW (330°)8.1 mph0.01 inRainLight Rain
6:49 PM46.4 °F41.0 °F81 %29.60 in2.0 miNNW (330°)8.1 mph0.05 inRainLight Rain
6:54 PM46.0 °F41.0 °F83 %29.60 in2.5 miNNW (330°)10.4 mph0.06 inRainLight Rain
7:04 PM46.0 °F39.9 °F79 %29.60 in4.0 miNNW (330°)12.7 mph0.01 inRainLight Rain
7:54 PM44.1 °F39.0 °F82 %29.59 in4.0 miNorth (350°)10.4 mph0.04 inRainLight Rain
8:24 PM43.0 °F37.9 °F82 %29.59 in5.0 miNorth (350°)10.4 mph0.02 inRainLight Rain
8:33 PM43.0 °F37.9 °F82 %29.59 in5.0 miNNW (340°)11.5 mph0.02 inRainLight Rain
8:54 PM43.0 °F37.0 °F80 %29.60 in4.0 miNNW (340°)10.4 mph0.03 inRainLight Rain
9:22 PM42.1 °F37.0 °F82 %29.62 in5.0 miNorth (350°)11.5 mph0.02 inRainLight Rain
9:54 PM42.1 °F36.0 °F79 %29.63 in8.0 miNorth (350°)12.7 mph0.03 inRainLight Rain
10:34 PM41.0 °F35.1 °F79 %29.67 in10.0 miNorth (350°)11.5 mph0.00 inRainLight Rain
10:54 PM39.9 °F34.0 °F79 %29.68 in10.0 miNNW (340°)12.7 mph0.00 inOvercast
11:11 PM39.9 °F34.0 °F79 %29.69 in10.0 miNorth (350°)10.4 mphOvercast
11:23 PM39.9 °F34.0 °F79 %29.70 in8.0 miNorth (350°)10.4 mphOvercast
11:30 PM39.9 °F34.0 °F79 %29.70 in8.0 miNorth (350°)9.2 mphOvercast
11:47 PM39.9 °F34.0 °F79 %29.71 in10.0 miNorth (350°)9.2 mphOvercast
11:54 PM39.9 °F34.0 °F79 %29.70 in10.0 miNorth (350°)9.2 mphOvercast
Hourly data recorded from KWAL, located miles away from Wallops Island, Virginia







STORIES FROM OUR PARTNERS